User: anonymous   Login
Location: Augustenthal
(51.7167°N, 10.2833°E)
Time: 16:55:01
(UTC+00:00)
Language:

Cosmos 1378 - Orbit

View from above orbital plane
View from above orbital plane
View from above satellite
View from above satellite

Ground track
Ground track

The orbit data is extracted from the following two-line orbital elements,

1 13271U 82059A   21210.84561662  .00001447  00000-0  58708-4 0  9990
2 13271  82.4663 143.8441 0008641  75.5284 284.6911 15.23774677138529
Epoch (UTC): 29 July 2021 20:17:41
Eccentricity: 0.0008641
inclination: 82.4663°
perigee height: 488 km
apogee height: 500 km
right ascension of ascending node: 143.8441°
argument of perigee: 75.5284°
revolutions per day: 15.23774677
mean anomaly at epoch: 284.6911°
orbit number at epoch: 13852

The dashed part of the orbit path shows where the satellite is in the earth's shadow,  

DLR